KZR991 UAAA-UACC

Flight info

Callsign KZR991
Flight time N/A
Altitude 34000
Route ETEDA1J ETEDA W333 BANOS BANOS1D
Aircraft A21N/M-SDE2E3FGHIRWXY/LB1

Departure

Time N/A
Airport Almaty International Airport (UAAA)

Arrival

Time 2026-05-05 17:51
Airport Nursultan Nazarbayev International Airport (UACC)
Time Latitude Longitude Altitude Speed Heading
2026-05-05 17:27 49.73284 73.30741 35950 ft 431 kts 317°
2026-05-05 17:27 49.75543 73.27708 35623 ft 425 kts 314°
2026-05-05 17:27 49.77683 73.24644 35184 ft 425 kts 313°
2026-05-05 17:27 49.79829 73.21531 34585 ft 427 kts 313°
2026-05-05 17:28 49.82010 73.18359 33796 ft 430 kts 313°
2026-05-05 17:28 49.84172 73.15215 33055 ft 432 kts 313°
2026-05-05 17:28 49.86354 73.12047 32360 ft 432 kts 313°
2026-05-05 17:28 49.88542 73.08873 31670 ft 433 kts 313°
2026-05-05 17:29 49.90743 73.05676 30989 ft 432 kts 314°
2026-05-05 17:29 49.92899 73.02547 30481 ft 429 kts 314°
2026-05-05 17:29 49.95070 72.99392 30059 ft 428 kts 314°
2026-05-05 17:29 49.97242 72.96230 29625 ft 425 kts 314°
2026-05-05 17:30 49.99389 72.93101 29165 ft 422 kts 313°
2026-05-05 17:30 50.01503 72.90017 28692 ft 418 kts 313°
2026-05-05 17:30 50.03606 72.86942 28206 ft 415 kts 313°
2026-05-05 17:30 50.05711 72.83858 27703 ft 412 kts 313°
2026-05-05 17:31 50.07786 72.80814 27203 ft 409 kts 313°
2026-05-05 17:31 50.09837 72.77799 26722 ft 406 kts 313°
2026-05-05 17:31 50.11855 72.74831 26264 ft 402 kts 313°
2026-05-05 17:31 50.13866 72.71870 25800 ft 399 kts 313°
2026-05-05 17:32 50.15877 72.68907 25332 ft 395 kts 313°
2026-05-05 17:32 50.17830 72.66267 24880 ft 395 kts 318°
2026-05-05 17:32 50.20067 72.63797 24416 ft 394 kts 324°
2026-05-05 17:32 50.22439 72.61691 23954 ft 393 kts 329°
2026-05-05 17:33 50.24842 72.59776 23485 ft 391 kts 330°
2026-05-05 17:33 50.27284 72.57869 23013 ft 389 kts 330°
2026-05-05 17:33 50.29694 72.55984 22542 ft 387 kts 330°
2026-05-05 17:33 50.32081 72.54108 22073 ft 385 kts 329°
2026-05-05 17:34 50.34448 72.52240 21607 ft 383 kts 329°
2026-05-05 17:34 50.36835 72.50352 21135 ft 381 kts 329°
2026-05-05 17:34 50.39162 72.48507 20682 ft 379 kts 329°
2026-05-05 17:34 50.41500 72.46650 20224 ft 377 kts 329°
2026-05-05 17:35 50.43849 72.44781 19754 ft 376 kts 329°
2026-05-05 17:35 50.46152 72.42945 19296 ft 374 kts 329°
2026-05-05 17:35 50.48468 72.41097 18831 ft 373 kts 329°
2026-05-05 17:35 50.50780 72.39252 18365 ft 371 kts 329°
2026-05-05 17:36 50.53055 72.37434 17921 ft 369 kts 329°
2026-05-05 17:36 50.55315 72.35626 17481 ft 367 kts 329°
2026-05-05 17:36 50.57591 72.33802 17040 ft 365 kts 328°
2026-05-05 17:36 50.59849 72.31991 16593 ft 363 kts 328°
2026-05-05 17:37 50.62079 72.30199 16159 ft 361 kts 328°
2026-05-05 17:37 50.63573 72.28998 15867 ft 359 kts 328°
2026-05-05 17:37 50.66502 72.26640 15281 ft 357 kts 328°
2026-05-05 17:37 50.68718 72.24854 14841 ft 355 kts 328°
2026-05-05 17:38 50.70906 72.23090 14404 ft 352 kts 328°
2026-05-05 17:38 50.73077 72.21338 13965 ft 350 kts 328°
2026-05-05 17:38 50.75225 72.19604 13525 ft 347 kts 328°
2026-05-05 17:38 50.77376 72.17869 13098 ft 345 kts 328°
2026-05-05 17:39 50.79505 72.16145 12680 ft 342 kts 328°
2026-05-05 17:39 50.81599 72.14447 12271 ft 339 kts 328°
2026-05-05 17:39 50.83696 72.12744 11857 ft 336 kts 328°
2026-05-05 17:39 50.85749 72.11078 11448 ft 333 kts 328°
2026-05-05 17:40 50.87788 72.09417 11041 ft 331 kts 328°
2026-05-05 17:40 50.89833 72.07750 10653 ft 327 kts 328°
2026-05-05 17:40 50.91824 72.06130 10510 ft 315 kts 328°
2026-05-05 17:40 50.93723 72.04588 10401 ft 302 kts 327°
2026-05-05 17:41 50.95550 72.03101 10284 ft 290 kts 327°
2026-05-05 17:41 50.97322 72.01651 9941 ft 287 kts 327°
2026-05-05 17:41 50.99094 72.00198 9587 ft 285 kts 327°
2026-05-05 17:41 51.00834 71.98772 9246 ft 283 kts 327°
2026-05-05 17:42 51.02578 71.97343 8895 ft 281 kts 327°
2026-05-05 17:42 51.04308 71.95926 8542 ft 279 kts 327°
2026-05-05 17:42 51.06031 71.94512 8190 ft 278 kts 327°
2026-05-05 17:42 51.07745 71.93105 7845 ft 276 kts 327°
2026-05-05 17:43 51.09427 71.91724 7505 ft 275 kts 327°
2026-05-05 17:43 51.11141 71.90313 7161 ft 273 kts 327°
2026-05-05 17:43 51.12804 71.88942 6826 ft 271 kts 326°
2026-05-05 17:43 51.14379 71.87338 6493 ft 265 kts 316°
2026-05-05 17:44 51.15753 71.85410 6156 ft 260 kts 310°
2026-05-05 17:44 51.17011 71.83400 5827 ft 258 kts 309°
2026-05-05 17:44 51.18255 71.81378 5499 ft 256 kts 309°
2026-05-05 17:44 51.19466 71.79353 5269 ft 247 kts 303°
2026-05-05 17:45 51.20077 71.76986 5168 ft 223 kts 270°
2026-05-05 17:45 51.19799 71.74590 5165 ft 222 kts 243°
2026-05-05 17:45 51.18883 71.72613 5006 ft 217 kts 229°
2026-05-05 17:45 51.17870 71.70925 4937 ft 204 kts 227°
2026-05-05 17:46 51.16883 71.69364 4795 ft 195 kts 227°
2026-05-05 17:46 51.15950 71.67913 4570 ft 186 kts 227°
2026-05-05 17:46 51.15057 71.66531 4329 ft 168 kts 227°
2026-05-05 17:46 51.14267 71.65311 4077 ft 151 kts 227°
2026-05-05 17:47 51.13535 71.64178 3858 ft 145 kts 228°
2026-05-05 17:47 51.12826 71.63075 3667 ft 144 kts 228°
2026-05-05 17:47 51.12104 71.61955 3481 ft 143 kts 229°
2026-05-05 17:47 51.11395 71.60853 3302 ft 143 kts 229°
2026-05-05 17:48 51.10681 71.59747 3127 ft 142 kts 229°
2026-05-05 17:48 51.09985 71.58663 2950 ft 142 kts 229°
2026-05-05 17:48 51.09279 71.57567 2767 ft 141 kts 229°
2026-05-05 17:48 51.08576 71.56473 2584 ft 140 kts 227°
2026-05-05 17:49 51.07881 71.55394 2409 ft 140 kts 227°
2026-05-05 17:49 51.07182 71.54305 2216 ft 140 kts 229°
2026-05-05 17:49 51.06500 71.53242 2033 ft 139 kts 227°
2026-05-05 17:49 51.05809 71.52165 1855 ft 138 kts 227°
2026-05-05 17:50 51.05120 71.51092 1661 ft 139 kts 228°
2026-05-05 17:50 51.04430 71.50020 1487 ft 138 kts 228°
2026-05-05 17:50 51.03749 71.48962 1300 ft 137 kts 227°
2026-05-05 17:50 51.03082 71.47894 1180 ft 131 kts 227°
2026-05-05 17:51 51.02527 71.47035 1173 ft 88 kts 223°
2026-05-05 17:51 51.02200 71.46526 1173 ft 54 kts 223°
2026-05-05 17:51 51.01942 71.46127 1173 ft 48 kts 226°
2026-05-05 17:51 51.01740 71.45808 1173 ft 22 kts 223°
2026-05-05 17:52 51.01706 71.45647 1173 ft 5 kts 342°
2026-05-05 17:52 51.01714 71.45641 1173 ft 1 kts 318°
2026-05-05 17:52 51.01737 71.45597 1173 ft 8 kts 311°
2026-05-05 17:52 51.01793 71.45510 1173 ft 12 kts 336°